Weather History for KAWG - October, 2014

Change the Weather History Date:

Monday, October 6, 2014

  Actual Average (KIOW) Record (KIOW)
Temperature  
Mean Temperature 54 °F 56 °F  
Max Temperature 62 °F 67 °F - ()
Min Temperature 46 °F 44 °F - ()
Degree Days  
Heating Degree Days 11 10  
Month to date heating degree days 55  
Since 1 July heating degree days 167  
Cooling Degree Days 0 1  
Month to date cooling degree days 6  
Year to date cooling degree days 908  
Growing Degree Days 4 (Base 50)    
Moisture  
Dew Point 43 °F    
Average Humidity 69    
Maximum Humidity 100    
Minimum Humidity 34    
Precipitation  
Precipitation 0.00 in 0.07 in - ()
Month to date precipitation 0.49  
Year to date precipitation 30.03  
Sea Level Pressure  
Sea Level Pressure 29.65 in    
Wind  
Wind Speed 9 mph (WSW)    
Max Wind Speed 21 mph    
Max Gust Speed 28 mph    
Visibility 10 miles    
Events      
T = Trace of Precipitation, MM = Missing Value Source: NWS Daily Summary

Daily Weather History Graph

Daily Weather History Graph

Search for Another Location

Airport or City:

Trip Planner

Search our weather history database for the weather conditions in past years. The results will help you decide how hot, cold, wet, or windy it might be!

Date:

Astronomy

Oct. 06, 2014 Rise Set
Actual Time 7:08 AM CDT 6:40 PM CDT
Civil Twilight 6:41 AM CDT 7:07 PM CDT
Nautical Twilight 6:09 AM CDT 7:39 PM CDT
Astronomical Twilight 5:36 AM CDT 8:11 PM CDT
Moon 5:38 PM CDT (10/6) 4:54 AM CDT (10/6)
Length of Visible Light 12h 26m
Length of Day
11h 31m
Waxing Gibbous, 96% of the Moon is Illuminated
Oct 6
Waxing Gibbous
Oct 8
Full
Oct 15
Last Quarter
Oct 23
New
Oct 30
First Quarter

Hourly Weather History & Observations

Time (CDT) Temp. Windchill Dew Point Humidity Pressure Visibility Wind Dir Wind Speed Gust Speed Precip Events Conditions
12:15 AM 46.4 °F 44.3 °F 42.8 °F 87% 29.63 in 10.0 mi SSW 4.6 mph - N/A   Clear
12:35 AM 46.4 °F 42.4 °F 42.8 °F 87% 29.63 in 10.0 mi SW 8.1 mph - N/A   Scattered Clouds
12:55 AM 46.4 °F 42.9 °F 42.8 °F 87% 29.62 in 10.0 mi SSW 6.9 mph - N/A   Mostly Cloudy
1:15 AM 48.2 °F - 44.6 °F 87% 29.62 in 10.0 mi SW 8.1 mph - N/A   Overcast
1:35 AM 50.0 °F - 44.6 °F 82% 29.61 in 10.0 mi SW 6.9 mph - N/A   Overcast
1:55 AM 50.0 °F - 44.6 °F 82% 29.61 in 10.0 mi WSW 8.1 mph - N/A   Overcast
2:15 AM 51.8 °F - 46.4 °F 82% 29.61 in 10.0 mi SW 6.9 mph - N/A   Overcast
2:35 AM 51.8 °F - 46.4 °F 82% 29.60 in 10.0 mi SW 6.9 mph - N/A   Overcast
2:55 AM 51.8 °F - 46.4 °F 82% 29.60 in 10.0 mi WSW 8.1 mph - N/A   Overcast
3:15 AM 51.8 °F - 46.4 °F 82% 29.60 in 10.0 mi West 9.2 mph - N/A   Mostly Cloudy
3:35 AM 51.8 °F - 46.4 °F 82% 29.60 in 10.0 mi West 9.2 mph - N/A   Mostly Cloudy
3:55 AM 51.8 °F - 46.4 °F 82% 29.60 in 10.0 mi West 8.1 mph - N/A   Overcast
4:15 AM 51.8 °F - 48.2 °F 88% 29.61 in 10.0 mi West 9.2 mph - N/A   Overcast
4:35 AM 50.0 °F - 48.2 °F 94% 29.62 in 10.0 mi West 6.9 mph - N/A   Mostly Cloudy
4:55 AM 50.0 °F - 46.4 °F 87% 29.62 in 10.0 mi West 8.1 mph - N/A   Mostly Cloudy
5:15 AM 50.0 °F - 48.2 °F 94% 29.62 in 10.0 mi WNW 8.1 mph - N/A   Mostly Cloudy
5:35 AM 48.2 °F - 46.4 °F 93% 29.62 in 10.0 mi WNW 9.2 mph - N/A   Scattered Clouds
5:55 AM 48.2 °F - 46.4 °F 93% 29.62 in 10.0 mi WNW 6.9 mph - N/A   Mostly Cloudy
6:15 AM 48.2 °F - 46.4 °F 93% 29.62 in 10.0 mi West 8.1 mph - N/A   Scattered Clouds
6:35 AM 46.4 °F 43.5 °F 46.4 °F 100% 29.63 in 10.0 mi West 5.8 mph - N/A   Partly Cloudy
6:55 AM 46.4 °F 42.9 °F 46.4 °F 100% 29.63 in 10.0 mi West 6.9 mph - N/A   Partly Cloudy
7:15 AM 46.4 °F 42.9 °F 46.4 °F 100% 29.63 in 10.0 mi West 6.9 mph - N/A   Mostly Cloudy
7:35 AM 46.4 °F 42.4 °F 46.4 °F 100% 29.63 in 10.0 mi West 8.1 mph - N/A   Mostly Cloudy
7:55 AM 48.2 °F - 46.4 °F 93% 29.64 in 10.0 mi West 6.9 mph - N/A   Mostly Cloudy
8:15 AM 48.2 °F - 48.2 °F 100% 29.64 in 10.0 mi West 6.9 mph - N/A   Mostly Cloudy
8:35 AM 50.0 °F - 48.2 °F 94% 29.65 in 10.0 mi West 6.9 mph - N/A   Partly Cloudy
8:55 AM 51.8 °F - 48.2 °F 88% 29.65 in 10.0 mi West 6.9 mph - N/A   Clear
9:15 AM 53.6 °F - 46.4 °F 77% 29.65 in 10.0 mi West 5.8 mph 12.7 mph N/A   Clear
9:35 AM 53.6 °F - 46.4 °F 77% 29.66 in 10.0 mi West 11.5 mph - N/A   Clear
9:55 AM 53.6 °F - 44.6 °F 72% 29.66 in 10.0 mi Variable 6.9 mph 16.1 mph N/A   Partly Cloudy
10:15 AM 55.4 °F - 44.6 °F 67% 29.67 in 10.0 mi WNW 17.3 mph - N/A   Mostly Cloudy
10:35 AM 55.4 °F - 42.8 °F 63% 29.67 in 10.0 mi WNW 15.0 mph 21.9 mph N/A   Mostly Cloudy
10:55 AM 57.2 °F - 41.0 °F 55% 29.68 in 10.0 mi WNW 17.3 mph - N/A   Scattered Clouds
11:15 AM 55.4 °F - 41.0 °F 58% 29.68 in 10.0 mi WNW 16.1 mph - N/A   Mostly Cloudy
11:35 AM 57.2 °F - 41.0 °F 55% 29.68 in 10.0 mi West 13.8 mph 24.2 mph N/A   Partly Cloudy
11:55 AM 57.2 °F - 37.4 °F 48% 29.68 in 10.0 mi WNW 17.3 mph - N/A   Partly Cloudy
12:15 PM 59.0 °F - 37.4 °F 45% 29.68 in 10.0 mi WNW 16.1 mph 25.3 mph N/A   Scattered Clouds
12:35 PM 59.0 °F - 39.2 °F 48% 29.67 in 10.0 mi West 15.0 mph 23.0 mph N/A   Mostly Cloudy
12:55 PM 59.0 °F - 37.4 °F 45% 29.67 in 10.0 mi WNW 15.0 mph 21.9 mph N/A   Mostly Cloudy
1:15 PM 59.0 °F - 35.6 °F 42% 29.67 in 10.0 mi WNW 18.4 mph - N/A   Partly Cloudy
1:35 PM 59.0 °F - 33.8 °F 39% 29.66 in 10.0 mi West 15.0 mph 25.3 mph N/A   Clear
1:55 PM 60.8 °F - 33.8 °F 36% 29.66 in 10.0 mi West 19.6 mph 26.5 mph N/A   Clear
2:35 PM 62.6 °F - 35.6 °F 37% 29.65 in 10.0 mi West 13.8 mph 21.9 mph N/A   Clear
2:55 PM 60.8 °F - 33.8 °F 36% 29.64 in 10.0 mi West 20.7 mph 26.5 mph N/A   Clear
3:15 PM 62.6 °F - 33.8 °F 34% 29.64 in 10.0 mi WNW 18.4 mph 24.2 mph N/A   Clear
3:35 PM 62.6 °F - 33.8 °F 34% 29.64 in 10.0 mi WNW 18.4 mph 27.6 mph N/A   Clear
3:55 PM 62.6 °F - 35.6 °F 37% 29.65 in 10.0 mi WNW 18.4 mph 25.3 mph N/A   Clear
4:15 PM 62.6 °F - 35.6 °F 37% 29.65 in 10.0 mi West 18.4 mph 25.3 mph N/A   Clear
4:35 PM 60.8 °F - 37.4 °F 42% 29.65 in 10.0 mi West 12.7 mph 21.9 mph N/A   Partly Cloudy
4:55 PM 62.6 °F - 35.6 °F 37% 29.65 in 10.0 mi West 13.8 mph 24.2 mph N/A   Scattered Clouds
5:35 PM 60.8 °F - 37.4 °F 42% 29.66 in 10.0 mi West 11.5 mph 19.6 mph N/A   Partly Cloudy
5:55 PM 60.8 °F - 39.2 °F 45% 29.66 in 10.0 mi West 6.9 mph - N/A   Clear
6:15 PM 59.0 °F - 39.2 °F 48% 29.67 in 10.0 mi WSW 5.8 mph - N/A   Partly Cloudy
6:35 PM 57.2 °F - 39.2 °F 51% 29.66 in 10.0 mi SW 5.8 mph - N/A   Partly Cloudy
6:55 PM 55.4 °F - 41.0 °F 58% 29.67 in - SSW 6.9 mph - N/A   Clear
7:15 PM 53.6 °F - 41.0 °F 62% 29.67 in 10.0 mi South 6.9 mph - N/A   Clear
7:35 PM 53.6 °F - 41.0 °F 62% 29.67 in 10.0 mi South 8.1 mph - N/A   Clear
7:55 PM 53.6 °F - 42.8 °F 67% 29.67 in 10.0 mi South 8.1 mph - N/A   Mostly Cloudy
8:15 PM 53.6 °F - 42.8 °F 67% 29.66 in 10.0 mi South 8.1 mph - N/A   Scattered Clouds
8:35 PM 51.8 °F - 42.8 °F 71% 29.67 in 10.0 mi South 8.1 mph - N/A   Clear
8:55 PM 53.6 °F - 42.8 °F 67% 29.66 in 10.0 mi SSW 8.1 mph - N/A   Clear
9:15 PM 53.6 °F - 42.8 °F 67% 29.66 in 10.0 mi SSW 9.2 mph - N/A   Clear
9:35 PM 53.6 °F - 44.6 °F 72% 29.66 in 10.0 mi SSW 8.1 mph - N/A   Clear
9:55 PM 53.6 °F - 44.6 °F 72% 29.66 in 10.0 mi SSW 10.4 mph - N/A   Partly Cloudy
10:15 PM 53.6 °F - 44.6 °F 72% 29.66 in 10.0 mi SW 6.9 mph - N/A   Mostly Cloudy
10:35 PM 53.6 °F - 46.4 °F 77% 29.66 in 10.0 mi SSW 9.2 mph - N/A   Scattered Clouds
10:55 PM 55.4 °F - 46.4 °F 72% 29.65 in 10.0 mi SSW 10.4 mph - N/A   Mostly Cloudy
11:15 PM 55.4 °F - 46.4 °F 72% 29.65 in 10.0 mi SSW 12.7 mph - N/A   Overcast
11:35 PM 55.4 °F - 46.4 °F 72% 29.65 in 10.0 mi SW 10.4 mph - N/A   Mostly Cloudy
11:55 PM 55.4 °F - 46.4 °F 72% 29.65 in 10.0 mi WSW 9.2 mph - N/A   Mostly Cloudy